Weather History for KMAN - July, 2013

Change the Weather History Date:

Thursday, July 11, 2013

  Actual Average (KBOI) Record (KBOI)
Temperature  
Mean Temperature 78 °F 75 °F  
Max Temperature 91 °F 91 °F 109 °F (2002)
Min Temperature 66 °F 60 °F 41 °F (1887)
Degree Days  
Heating Degree Days 0 0  
Month to date heating degree days 4  
Since 1 June heating degree days 68  
Since 1 July heating degree days 4  
Cooling Degree Days 14 10  
Month to date cooling degree days 100  
Year to date cooling degree days 283  
Since 1 June cooling degree days 239  
Growing Degree Days 28 (Base 50)    
Moisture  
Dew Point 43 °F    
Average Humidity 30    
Maximum Humidity 56    
Minimum Humidity 17    
Precipitation  
Precipitation 0.00 in 0.01 in 0.22 in (1970)
Month to date precipitation 0.14  
Year to date precipitation 7.07  
Snow  
Snow 0.00 in 0.00 in 0.00 in (2006)
Month to date snowfall 0.0  
Since 1 July snowfall 0.0  
Snow Depth -    
Sea Level Pressure  
Sea Level Pressure 29.87 in    
Wind  
Wind Speed 7 mph (ESE)    
Max Wind Speed 17 mph    
Max Gust Speed 32 mph    
Visibility 10 miles    
Events      
T = Trace of Precipitation, MM = Missing Value Source: NWS Daily Summary

Daily Weather History Graph

Daily Weather History Graph

Search for Another Location

Airport or City:

Trip Planner

Search our weather history database for the weather conditions in past years. The results will help you decide how hot, cold, wet, or windy it might be!

Date:

Astronomy

Jul. 11, 2013 Rise Set
Actual Time 6:15 AM MDT 9:27 PM MDT
Civil Twilight 5:40 AM MDT 10:02 PM MDT
Nautical Twilight 4:55 AM MDT 10:47 PM MDT
Astronomical Twilight 4:00 AM MDT 11:41 PM MDT
Moon 9:46 AM MDT (7/11) 11:01 PM MDT (7/11)
Length of Visible Light 16h 21m
Length of Day
15h 11m
Waxing Crescent, 11% of the Moon is Illuminated
Jul 11
Waxing Crescent
Jul 15
First Quarter
Jul 22
Full
Jul 29
Last Quarter
Aug 6
New

Hourly Weather History & Observations

Time (MDT) Temp. Dew Point Humidity Pressure Visibility Wind Dir Wind Speed Gust Speed Precip Events Conditions
12:15 AM 73.4 °F 55.4 °F 53% 29.81 in 10.0 mi North 4.6 mph - N/A   Clear
12:35 AM 82.4 °F 48.2 °F 30% 29.81 in 10.0 mi NW 4.6 mph - N/A   Clear
12:55 AM 78.8 °F 46.4 °F 32% 29.82 in 10.0 mi NW 5.8 mph - N/A   Clear
1:15 AM 80.6 °F 44.6 °F 28% 29.82 in 10.0 mi NNW 4.6 mph - N/A   Clear
1:35 AM 77.0 °F 46.4 °F 34% 29.82 in 10.0 mi SW 3.5 mph - N/A   Clear
1:55 AM 73.4 °F 48.2 °F 41% 29.83 in 10.0 mi West 5.8 mph - N/A   Clear
2:15 AM 75.2 °F 44.6 °F 34% 29.83 in 10.0 mi West 6.9 mph - N/A   Clear
2:35 AM 75.2 °F 44.6 °F 34% 29.84 in 10.0 mi West 6.9 mph - N/A   Clear
2:55 AM 75.2 °F 44.6 °F 34% 29.84 in 10.0 mi West 6.9 mph - N/A   Clear
3:15 AM 75.2 °F 44.6 °F 34% 29.85 in 10.0 mi West 8.1 mph - N/A   Clear
3:35 AM 75.2 °F 41.0 °F 29% 29.84 in 10.0 mi West 8.1 mph - N/A   Clear
3:55 AM 75.2 °F 41.0 °F 29% 29.85 in 10.0 mi West 6.9 mph - N/A   Unknown
4:15 AM 75.2 °F 41.0 °F 29% 29.86 in 10.0 mi West 6.9 mph - N/A   Clear
4:35 AM 75.2 °F 41.0 °F 29% 29.86 in 10.0 mi NW 6.9 mph - N/A   Clear
4:55 AM 73.4 °F 41.0 °F 31% 29.87 in 10.0 mi WNW 5.8 mph - N/A   Clear
5:15 AM 73.4 °F 41.0 °F 31% 29.87 in 10.0 mi West 8.1 mph - N/A   Clear
5:35 AM 75.2 °F 37.4 °F 25% 29.88 in 10.0 mi WNW 12.7 mph - N/A   Clear
5:55 AM 75.2 °F 37.4 °F 25% 29.89 in 10.0 mi NW 9.2 mph - N/A   Clear
6:15 AM 75.2 °F 39.2 °F 27% 29.89 in 10.0 mi NW 6.9 mph - N/A   Clear
6:35 AM 73.4 °F 39.2 °F 29% 29.89 in 10.0 mi NNW 5.8 mph - N/A   Clear
6:55 AM 71.6 °F 42.8 °F 35% 29.90 in 10.0 mi East 3.5 mph - N/A   Clear
7:15 AM 69.8 °F 41.0 °F 35% 29.90 in 10.0 mi Calm Calm - N/A   Clear
7:35 AM 71.6 °F 39.2 °F 31% 29.90 in 10.0 mi NNW 3.5 mph - N/A   Clear
7:55 AM 68.0 °F 48.2 °F 49% 29.90 in 10.0 mi Calm Calm - N/A   Clear
8:15 AM 71.6 °F 39.2 °F 31% 29.90 in 10.0 mi NW 8.1 mph - N/A   Clear
8:35 AM 73.4 °F 41.0 °F 31% 29.90 in 10.0 mi West 3.5 mph - N/A   Partly Cloudy
8:55 AM 73.4 °F 39.2 °F 29% 29.92 in 10.0 mi WNW 4.6 mph - N/A   Partly Cloudy
9:15 AM 75.2 °F 37.4 °F 25% 29.92 in 10.0 mi NNW 5.8 mph - N/A   Clear
9:35 AM 75.2 °F 37.4 °F 25% 29.93 in 10.0 mi NW 8.1 mph - N/A   Clear
9:55 AM 73.4 °F 41.0 °F 31% 29.94 in 10.0 mi WNW 4.6 mph - N/A   Clear
10:15 AM 73.4 °F 44.6 °F 36% 29.94 in 10.0 mi ESE 4.6 mph - N/A   Clear
10:35 AM 73.4 °F 44.6 °F 36% 29.94 in 10.0 mi SE 4.6 mph - N/A   Clear
10:55 AM 75.2 °F 44.6 °F 34% 29.94 in 10.0 mi East 4.6 mph - N/A   Clear
11:15 AM 75.2 °F 41.0 °F 29% 29.94 in 10.0 mi ESE 6.9 mph - N/A   Clear
11:35 AM 75.2 °F 44.6 °F 34% 29.94 in 10.0 mi ESE 8.1 mph - N/A   Clear
11:55 AM 77.0 °F 39.2 °F 26% 29.94 in 10.0 mi ESE 8.1 mph - N/A   Clear
12:15 PM 77.0 °F 35.6 °F 22% 29.94 in 10.0 mi SE 6.9 mph - N/A   Clear
12:35 PM 78.8 °F 35.6 °F 21% 29.93 in 10.0 mi East 6.9 mph - N/A   Clear
12:55 PM 80.6 °F 32.0 °F 17% 29.92 in 10.0 mi East 6.9 mph - N/A   Clear
1:15 PM 80.6 °F 35.6 °F 20% 29.92 in 10.0 mi East 6.9 mph - N/A   Clear
1:35 PM 82.4 °F 37.4 °F 20% 29.91 in 10.0 mi ESE 6.9 mph - N/A   Clear
1:55 PM 84.2 °F 41.0 °F 22% 29.90 in 10.0 mi SE 6.9 mph - N/A   Clear
2:15 PM 86.0 °F 42.8 °F 22% 29.90 in 10.0 mi SE 5.8 mph - N/A   Clear
2:35 PM 87.8 °F 44.6 °F 22% 29.89 in 10.0 mi SSE 8.1 mph - N/A   Clear
2:55 PM 86.0 °F 42.8 °F 22% 29.88 in 10.0 mi SSE 9.2 mph - N/A   Clear
3:15 PM 86.0 °F 44.6 °F 23% 29.88 in 10.0 mi SSE 5.8 mph - N/A   Clear
3:35 PM 87.8 °F 42.8 °F 21% 29.87 in 10.0 mi SSE 10.4 mph - N/A   Clear
3:55 PM 87.8 °F 42.8 °F 21% 29.86 in 10.0 mi SE 10.4 mph - N/A   Clear
4:15 PM 87.8 °F 44.6 °F 22% 29.85 in 10.0 mi SE 10.4 mph - N/A   Clear
4:35 PM 89.6 °F 41.0 °F 18% 29.84 in 10.0 mi SE 11.5 mph 16.1 mph N/A   Clear
4:55 PM 89.6 °F 41.0 °F 18% 29.83 in 10.0 mi SE 11.5 mph 18.4 mph N/A   Clear
5:15 PM 91.4 °F 42.8 °F 18% 29.83 in 10.0 mi SE 17.3 mph 23.0 mph N/A   Clear
5:35 PM 89.6 °F 41.0 °F 18% 29.82 in 10.0 mi SE 12.7 mph 21.9 mph N/A   Clear
5:55 PM 86.0 °F 42.8 °F 22% 29.81 in 10.0 mi SE 8.1 mph 16.1 mph N/A   Clear
6:15 PM 86.0 °F 41.0 °F 20% 29.81 in 10.0 mi SE 5.8 mph - N/A   Clear
6:35 PM 87.8 °F 44.6 °F 22% 29.80 in 10.0 mi ESE 11.5 mph 16.1 mph N/A   Clear
6:55 PM 89.6 °F 44.6 °F 21% 29.80 in 10.0 mi ESE 9.2 mph - N/A   Clear
7:15 PM 87.8 °F 42.8 °F 21% 29.79 in 10.0 mi ESE 13.8 mph 20.7 mph N/A   Clear
7:35 PM 86.0 °F 44.6 °F 23% 29.79 in 10.0 mi SE 11.5 mph 16.1 mph N/A   Clear
7:55 PM 84.2 °F 44.6 °F 25% 29.80 in 10.0 mi SE 13.8 mph 19.6 mph N/A   Clear
8:15 PM 84.2 °F 44.6 °F 25% 29.80 in 10.0 mi ESE 12.7 mph 18.4 mph N/A   Clear
8:35 PM 82.4 °F 44.6 °F 26% 29.83 in 10.0 mi NNW 12.7 mph 18.4 mph N/A   Partly Cloudy
8:55 PM 80.6 °F 44.6 °F 28% 29.83 in 8.0 mi North 16.1 mph 32.2 mph N/A   Scattered Clouds
9:15 PM 77.0 °F 46.4 °F 34% 29.84 in 10.0 mi ENE 9.2 mph - N/A   Partly Cloudy
9:35 PM 75.2 °F 48.2 °F 38% 29.83 in 10.0 mi ENE 10.4 mph - N/A   Clear
9:55 PM 73.4 °F 50.0 °F 44% 29.84 in 10.0 mi NNE 10.4 mph - N/A   Clear
10:15 PM 71.6 °F 50.0 °F 46% 29.84 in 10.0 mi East 5.8 mph - N/A   Clear
10:35 PM 71.6 °F 50.0 °F 46% 29.84 in 10.0 mi South 3.5 mph - N/A   Clear
10:55 PM 71.6 °F 50.0 °F 46% 29.83 in 10.0 mi Calm Calm - N/A   Clear
11:15 PM 66.2 °F 50.0 °F 56% 29.84 in 10.0 mi SSE 3.5 mph - N/A   Clear
11:35 PM 68.0 °F 50.0 °F 52% 29.84 in 10.0 mi NW 5.8 mph - N/A   Clear
11:55 PM 68.0 °F 50.0 °F 52% 29.84 in 10.0 mi Calm Calm - N/A   Clear